This is the latest recevied weather packets stored in our database for station/object W5CDN. If no packets are shown the sender has not sent any weather packets the latest 10 day(s).
| Time | Temp. | Humidity | Pressure | Rain* | Wind** | Luminosity | Snow |
|---|---|---|---|---|---|---|---|
| 1788373736 | 30.56° C | 66% | 1012.9 hPa | 0 mm | - | - | - |
| 1788373436 | 30.56° C | 67% | 1013.1 hPa | 0 mm | - | - | - |
| 1788373136 | 30° C | 68% | 1013.2 hPa | 0 mm | - | - | - |
| 1788372836 | 30° C | 69% | 1013.2 hPa | 0 mm | - | - | - |
| 1788372536 | 30° C | 68% | 1013.4 hPa | 0 mm | - | - | - |
| 1788372236 | 30.56° C | 67% | 1013.4 hPa | 0 mm | - | - | - |
| 1788371936 | 31.11° C | 65% | 1013.5 hPa | 0 mm | - | - | - |
| 1788371636 | 30.56° C | 65% | 1013.8 hPa | 0 mm | - | - | - |
| 1788371336 | 30.56° C | 65% | 1013.5 hPa | 0 mm | - | - | - |
| 1788371036 | 30.56° C | 64% | 1013.4 hPa | 0 mm | - | - | - |
| 1788370736 | 30.56° C | 64% | 1013.5 hPa | 0 mm | - | - | - |
| 1788370436 | 30.56° C | 65% | 1013.5 hPa | 0 mm | - | - | - |
| 1788370136 | 30° C | 66% | 1013.4 hPa | 0 mm | - | - | - |
| 1788369836 | 30.56° C | 66% | 1013.4 hPa | 0 mm | - | - | - |
| 1788369536 | 30.56° C | 65% | 1013.6 hPa | 0 mm | - | - | - |
| 1788369236 | 31.11° C | 63% | 1013.8 hPa | 0 mm | - | - | - |
| 1788368936 | 31.11° C | 62% | 1013.8 hPa | 0 mm | - | - | - |
| 1788368636 | 31.11° C | 63% | 1014 hPa | 0 mm | - | - | - |
| 1788368336 | 31.11° C | 63% | 1014.4 hPa | 0 mm | - | - | - |
| 1788368036 | 30.56° C | 65% | 1014.5 hPa | 0 mm | - | - | - |
| 1788367736 | 30.56° C | 66% | 1014.7 hPa | 0 mm | - | - | - |
| 1788367436 | 30.56° C | 67% | 1014.6 hPa | 0 mm | - | - | - |
| 1788367136 | 30° C | 70% | 1014.7 hPa | 0 mm | - | - | - |
| 1788366836 | 28.33° C | 74% | 1014.9 hPa | 0 mm | - | - | - |
| 1788366536 | 28.89° C | 75% | 1015 hPa | 0 mm | - | - | - |
* Rain latest hour (hover to see other rain measurements)
** Current wind speed in m/s (hover to see current wind gust speed)